Find Starlink 32159

NORAD ID: 60293 Int'l Des: 2024-132 Owner: SPXS Country: US Constellation: starlink operational
LEOCIRCULAR

Current View

Loading 3D Globe...

About Starlink 32159

Starlink 32159 (NORAD 60293) is a starlink constellation satellite (v2 mini) launched Jul 28, 2024 by SPXS of US. It operates in LEO, CIRCULAR orbit with a mass of 730.00 kg.

Upcoming Passes

Passes for default location (London). Set your location on the main map for personalized predictions.

Altitude History

Loading altitude history...

Two-Line Element Set

1 60293U 24132R 26237.70339546 .00000149 00000-0 15554-4 0 9997
2 60293 53.1594 346.2116 0001394 84.3863 275.7299 15.34390037117455
Epoch: Aug 25, 2026 • Age: 16 hours

Current Status

Altitude 464.8 km
Apogee / Perigee N/A
Velocity 7.64 km/s
Sub-Earth Point 35.97°N, 19.33°E
Launch Date Jul 28, 2024
Age 2 years
Type internet

Technical Details

Classification Payload
Mass 730.00 kg
Dry Mass 700.00 kg
Total Mass 730.00 kg
Length 0.30 m
Diameter 4.10 m
Span 29.00 m
Shape Box + pan
Manufacturer SPXS
Bus Type Starlink V2M
Phase Status In Orbit
Owner/State SPXS/US

Most Searched